Year,Month,Day,Hour,Minute,Value (Times are PST for temperature in C)
2012,04,01,00,00,0.50
2012,04,01,00,01,0.50
2012,04,01,00,02,0.50
2012,04,01,00,03,0.50
2012,04,01,00,04,0.50
2012,04,01,00,05,0.50
2012,04,01,00,06,0.50
2012,04,01,00,07,0.50
2012,04,01,00,08,0.50
2012,04,01,00,09,0.50
2012,04,01,00,10,0.50
2012,04,01,00,11,0.50
2012,04,01,00,12,0.50
2012,04,01,00,13,0.40
2012,04,01,00,14,0.50
2012,04,01,00,15,0.40
2012,04,01,00,16,0.40
2012,04,01,00,17,0.40
2012,04,01,00,18,0.40
2012,04,01,00,19,0.40
2012,04,01,00,20,0.40
2012,04,01,00,21,0.40
2012,04,01,00,22,0.40
2012,04,01,00,23,0.50
2012,04,01,00,24,0.50
2012,04,01,00,25,0.40
2012,04,01,00,26,0.50
2012,04,01,00,27,0.50
2012,04,01,00,28,0.40
2012,04,01,00,29,0.40
2012,04,01,00,30,0.40
2012,04,01,00,31,0.40
2012,04,01,00,32,0.40
2012,04,01,00,33,0.40
2012,04,01,00,34,0.40
2012,04,01,00,35,0.40
2012,04,01,00,36,0.40
2012,04,01,00,37,0.40
2012,04,01,00,38,0.40
2012,04,01,00,39,0.40
2012,04,01,00,40,0.40
2012,04,01,00,41,0.40
2012,04,01,00,42,0.40
2012,04,01,00,43,0.40
2012,04,01,00,44,0.40
2012,04,01,00,45,0.40
2012,04,01,00,46,0.40
2012,04,01,00,47,0.40
2012,04,01,00,48,0.40
2012,04,01,00,49,0.40
2012,04,01,00,50,0.40
2012,04,01,00,51,0.40
2012,04,01,00,52,0.40
2012,04,01,00,53,0.40
2012,04,01,00,54,0.40
2012,04,01,00,55,0.40
2012,04,01,00,56,0.40
2012,04,01,00,57,0.40
2012,04,01,00,58,0.40
2012,04,01,00,59,0.40
2012,04,01,01,00,0.40
2012,04,01,01,01,0.40
2012,04,01,01,02,0.40
2012,04,01,01,03,0.40
2012,04,01,01,04,0.40
2012,04,01,01,05,0.40
2012,04,01,01,06,0.40
2012,04,01,01,07,0.40
2012,04,01,01,08,0.40
2012,04,01,01,09,0.40
2012,04,01,01,10,0.40
2012,04,01,01,11,0.40
2012,04,01,01,12,0.40
2012,04,01,01,13,0.40
2012,04,01,01,14,0.40
2012,04,01,01,15,0.40
2012,04,01,01,16,0.40
2012,04,01,01,17,0.40
2012,04,01,01,18,0.40
2012,04,01,01,19,0.40
2012,04,01,01,20,0.40
2012,04,01,01,21,0.40
2012,04,01,01,22,0.40
2012,04,01,01,23,0.40
2012,04,01,01,24,0.40
2012,04,01,01,25,0.40
2012,04,01,01,26,0.40
2012,04,01,01,27,0.40
2012,04,01,01,28,0.40
2012,04,01,01,29,0.40
2012,04,01,01,30,0.40
2012,04,01,01,31,0.40
2012,04,01,01,32,0.40
2012,04,01,01,33,0.40
2012,04,01,01,34,0.40
2012,04,01,01,35,0.40
2012,04,01,01,36,0.40
2012,04,01,01,37,0.40
2012,04,01,01,38,0.40
2012,04,01,01,39,0.40
2012,04,01,01,40,0.40
2012,04,01,01,41,0.40
2012,04,01,01,42,0.40
2012,04,01,01,43,0.40
2012,04,01,01,44,0.40
2012,04,01,01,45,0.40
2012,04,01,01,46,0.40
2012,04,01,01,47,0.40
2012,04,01,01,48,0.40
2012,04,01,01,49,0.40
2012,04,01,01,50,0.40
2012,04,01,01,51,0.40
2012,04,01,01,52,0.40
2012,04,01,01,53,0.40
2012,04,01,01,54,0.40
2012,04,01,01,55,0.40
2012,04,01,01,56,0.40
2012,04,01,01,57,0.40
2012,04,01,01,58,0.40
2012,04,01,01,59,0.40
2012,04,01,02,00,0.40
2012,04,01,02,01,0.40
2012,04,01,02,02,0.40
2012,04,01,02,03,0.40
2012,04,01,02,04,0.40
2012,04,01,02,05,0.40
2012,04,01,02,06,0.40
2012,04,01,02,07,0.40
2012,04,01,02,08,0.40
2012,04,01,02,09,0.40
2012,04,01,02,10,0.40
2012,04,01,02,11,0.40
2012,04,01,02,12,0.40
2012,04,01,02,13,0.40
2012,04,01,02,14,0.40
2012,04,01,02,15,0.40
2012,04,01,02,16,0.40
2012,04,01,02,17,0.40
2012,04,01,02,18,0.40
2012,04,01,02,19,0.40
2012,04,01,02,20,0.40
2012,04,01,02,21,0.40
2012,04,01,02,22,0.40
2012,04,01,02,23,0.40
2012,04,01,02,24,0.40
2012,04,01,02,25,0.40
2012,04,01,02,26,0.40
2012,04,01,02,27,0.40
2012,04,01,02,28,0.40
2012,04,01,02,29,0.40
2012,04,01,02,30,0.40
2012,04,01,02,31,0.40
2012,04,01,02,32,0.40
2012,04,01,02,33,0.40
2012,04,01,02,34,0.40
2012,04,01,02,35,0.40
2012,04,01,02,36,0.40
2012,04,01,02,37,0.40
2012,04,01,02,38,0.40
2012,04,01,02,39,0.40
2012,04,01,02,40,0.40
2012,04,01,02,41,0.40
2012,04,01,02,42,0.40
2012,04,01,02,43,0.40
2012,04,01,02,44,0.40
2012,04,01,02,45,0.50
2012,04,01,02,46,0.50
2012,04,01,02,47,0.50
2012,04,01,02,48,0.50
2012,04,01,02,49,0.50
2012,04,01,02,50,0.50
2012,04,01,02,51,0.50
2012,04,01,02,52,0.50
2012,04,01,02,53,0.50
2012,04,01,02,54,0.50
2012,04,01,02,55,0.50
2012,04,01,02,56,0.50
2012,04,01,02,57,0.50
2012,04,01,02,58,0.50
2012,04,01,02,59,0.50
2012,04,01,03,00,0.50
2012,04,01,03,01,0.50
2012,04,01,03,02,0.50
2012,04,01,03,03,0.50
2012,04,01,03,04,0.50
2012,04,01,03,05,0.40
2012,04,01,03,06,0.50
2012,04,01,03,07,0.50
2012,04,01,03,08,0.40
2012,04,01,03,09,0.40
2012,04,01,03,10,0.40
2012,04,01,03,11,0.40
2012,04,01,03,12,0.40
2012,04,01,03,13,0.40
2012,04,01,03,14,0.40
2012,04,01,03,15,0.40
2012,04,01,03,16,0.40
2012,04,01,03,17,0.40
2012,04,01,03,18,0.40
2012,04,01,03,19,0.40
2012,04,01,03,20,0.40
2012,04,01,03,21,0.40
2012,04,01,03,22,0.40
2012,04,01,03,23,0.50
2012,04,01,03,24,0.40
2012,04,01,03,25,0.40
2012,04,01,03,26,0.40
2012,04,01,03,27,0.40
2012,04,01,03,28,0.50
2012,04,01,03,29,0.50
2012,04,01,03,30,0.50
2012,04,01,03,31,0.50
2012,04,01,03,32,0.50
2012,04,01,03,33,0.50
2012,04,01,03,34,0.50
2012,04,01,03,35,0.50
2012,04,01,03,36,0.50
2012,04,01,03,37,0.50
2012,04,01,03,38,0.50
2012,04,01,03,39,0.60
2012,04,01,03,40,0.60
2012,04,01,03,41,0.60
2012,04,01,03,42,0.60
2012,04,01,03,43,0.60
2012,04,01,03,44,0.60
2012,04,01,03,45,0.60
2012,04,01,03,46,0.60
2012,04,01,03,47,0.60
2012,04,01,03,48,0.60
2012,04,01,03,49,0.60
2012,04,01,03,50,0.60
2012,04,01,03,51,0.60
2012,04,01,03,52,0.70
2012,04,01,03,53,0.70
2012,04,01,03,54,0.70
2012,04,01,03,55,0.70
2012,04,01,03,56,0.70
2012,04,01,03,57,0.70
2012,04,01,03,58,0.70
2012,04,01,03,59,0.70
2012,04,01,04,00,0.70
2012,04,01,04,01,0.70
2012,04,01,04,02,0.70
2012,04,01,04,03,0.70
2012,04,01,04,04,0.70
2012,04,01,04,05,0.70
2012,04,01,04,06,0.80
2012,04,01,04,07,0.80
2012,04,01,04,08,0.80
2012,04,01,04,09,0.80
2012,04,01,04,10,0.80
2012,04,01,04,11,0.80
2012,04,01,04,12,0.80
2012,04,01,04,13,0.80
2012,04,01,04,14,0.80
2012,04,01,04,15,0.80
2012,04,01,04,16,0.80
2012,04,01,04,17,0.80
2012,04,01,04,18,0.80
2012,04,01,04,19,0.80
2012,04,01,04,20,0.80
2012,04,01,04,21,0.80
2012,04,01,04,22,0.80
2012,04,01,04,23,0.80
2012,04,01,04,24,0.80
2012,04,01,04,25,0.80
2012,04,01,04,26,0.80
2012,04,01,04,27,0.90
2012,04,01,04,28,0.90
2012,04,01,04,29,0.90
2012,04,01,04,30,0.90
2012,04,01,04,31,0.90
2012,04,01,04,32,0.90
2012,04,01,04,33,0.90
2012,04,01,04,34,0.90
2012,04,01,04,35,0.90
2012,04,01,04,36,0.90
2012,04,01,04,37,0.90
2012,04,01,04,38,0.90
2012,04,01,04,39,0.90
2012,04,01,04,40,0.90
2012,04,01,04,41,0.90
2012,04,01,04,42,0.90
2012,04,01,04,43,0.90
2012,04,01,04,44,0.90
2012,04,01,04,45,0.90
2012,04,01,04,46,0.90
2012,04,01,04,47,0.90
2012,04,01,04,48,0.90
2012,04,01,04,49,0.90
2012,04,01,04,50,0.90
2012,04,01,04,51,0.90
2012,04,01,04,52,0.90
2012,04,01,04,53,0.90
2012,04,01,04,54,0.90
2012,04,01,04,55,0.90
2012,04,01,04,56,0.90
2012,04,01,04,57,0.90
2012,04,01,04,58,0.90
2012,04,01,04,59,0.90
2012,04,01,05,00,0.90
2012,04,01,05,01,0.90
2012,04,01,05,02,0.90
2012,04,01,05,03,0.90
2012,04,01,05,04,0.90
2012,04,01,05,05,0.90
2012,04,01,05,06,1.00
2012,04,01,05,07,1.00
2012,04,01,05,08,1.00
2012,04,01,05,09,1.00
2012,04,01,05,10,1.00
2012,04,01,05,11,1.00
2012,04,01,05,12,1.00
2012,04,01,05,13,1.10
2012,04,01,05,14,1.10
2012,04,01,05,15,1.10
2012,04,01,05,16,1.10
2012,04,01,05,17,1.10
2012,04,01,05,18,1.10
2012,04,01,05,19,1.10
2012,04,01,05,20,1.10
2012,04,01,05,21,1.10
2012,04,01,05,22,1.20
2012,04,01,05,23,1.20
2012,04,01,05,24,1.20
2012,04,01,05,25,1.20
2012,04,01,05,26,1.20
2012,04,01,05,27,1.20
2012,04,01,05,28,1.20
2012,04,01,05,29,1.30
2012,04,01,05,30,1.30
2012,04,01,05,31,1.30
2012,04,01,05,32,1.30
2012,04,01,05,33,1.30
2012,04,01,05,34,1.30
2012,04,01,05,35,1.30
2012,04,01,05,36,1.30
2012,04,01,05,37,1.30
2012,04,01,05,38,1.30
2012,04,01,05,39,1.30
2012,04,01,05,40,1.30
2012,04,01,05,41,1.30
2012,04,01,05,42,1.30
2012,04,01,05,43,1.30
2012,04,01,05,44,1.30
2012,04,01,05,45,1.30
2012,04,01,05,46,1.30
2012,04,01,05,47,1.20
2012,04,01,05,48,1.20
2012,04,01,05,49,1.20
2012,04,01,05,50,1.20
2012,04,01,05,51,1.20
2012,04,01,05,52,1.20
2012,04,01,05,53,1.20
2012,04,01,05,54,1.20
2012,04,01,05,55,1.20
2012,04,01,05,56,1.10
2012,04,01,05,57,1.10
2012,04,01,05,58,1.10
2012,04,01,05,59,1.10
2012,04,01,06,00,1.10
2012,04,01,06,01,1.10
2012,04,01,06,02,1.10
2012,04,01,06,03,1.10
2012,04,01,06,04,1.10
2012,04,01,06,05,1.10
2012,04,01,06,06,1.10
2012,04,01,06,07,1.10
2012,04,01,06,08,1.10
2012,04,01,06,09,1.10
2012,04,01,06,10,1.10
2012,04,01,06,11,1.10
2012,04,01,06,12,1.10
2012,04,01,06,13,1.10
2012,04,01,06,14,1.10
2012,04,01,06,15,1.10
2012,04,01,06,16,1.10
2012,04,01,06,17,1.10
2012,04,01,06,18,1.10
2012,04,01,06,19,1.10
2012,04,01,06,20,1.10
2012,04,01,06,21,1.10
2012,04,01,06,22,1.10
2012,04,01,06,23,1.10
2012,04,01,06,24,1.10
2012,04,01,06,25,1.10
2012,04,01,06,26,1.10
2012,04,01,06,27,1.10
2012,04,01,06,28,1.10
2012,04,01,06,29,1.10
2012,04,01,06,30,1.10
2012,04,01,06,31,1.10
2012,04,01,06,32,1.10
2012,04,01,06,33,1.10
2012,04,01,06,34,1.10
2012,04,01,06,35,1.20
2012,04,01,06,36,1.20
2012,04,01,06,37,1.20
2012,04,01,06,38,1.20
2012,04,01,06,39,1.20
2012,04,01,06,40,1.30
2012,04,01,06,41,1.30
2012,04,01,06,42,1.30
2012,04,01,06,43,1.30
2012,04,01,06,44,1.30
2012,04,01,06,45,1.30
2012,04,01,06,46,1.30
2012,04,01,06,47,1.30
2012,04,01,06,48,1.30
2012,04,01,06,49,1.30
2012,04,01,06,50,1.30
2012,04,01,06,51,1.30
2012,04,01,06,52,1.30
2012,04,01,06,53,1.30
2012,04,01,06,54,1.30
2012,04,01,06,55,1.30
2012,04,01,06,56,1.30
2012,04,01,06,57,1.30
2012,04,01,06,58,1.30
2012,04,01,06,59,1.30
2012,04,01,07,00,1.30
2012,04,01,07,01,1.30
2012,04,01,07,02,1.30
2012,04,01,07,03,1.30
2012,04,01,07,04,1.30
2012,04,01,07,05,1.30
2012,04,01,07,06,1.30
2012,04,01,07,07,1.30
2012,04,01,07,08,1.30
2012,04,01,07,09,1.30
2012,04,01,07,10,1.30
2012,04,01,07,11,1.30
2012,04,01,07,12,1.30
2012,04,01,07,13,1.20
2012,04,01,07,14,1.20
2012,04,01,07,15,1.20
2012,04,01,07,16,1.20
2012,04,01,07,17,1.20
2012,04,01,07,18,1.20
2012,04,01,07,19,1.20
2012,04,01,07,20,1.20
2012,04,01,07,21,1.20
2012,04,01,07,22,1.20
2012,04,01,07,23,1.20
2012,04,01,07,24,1.20
2012,04,01,07,25,1.20
2012,04,01,07,26,1.20
2012,04,01,07,27,1.20
2012,04,01,07,28,1.20
2012,04,01,07,29,1.20
2012,04,01,07,30,1.20
2012,04,01,07,31,1.20
2012,04,01,07,32,1.10
2012,04,01,07,33,1.10
2012,04,01,07,34,1.10
2012,04,01,07,35,1.10
2012,04,01,07,36,1.10
2012,04,01,07,37,1.10
2012,04,01,07,38,1.10
2012,04,01,07,39,1.10
2012,04,01,07,40,1.10
2012,04,01,07,41,1.10
2012,04,01,07,42,1.10
2012,04,01,07,43,1.10
2012,04,01,07,44,1.10
2012,04,01,07,45,1.10
2012,04,01,07,46,1.10
2012,04,01,07,47,1.10
2012,04,01,07,48,1.10
2012,04,01,07,49,1.10
2012,04,01,07,50,1.10
2012,04,01,07,51,1.10
2012,04,01,07,52,1.10
2012,04,01,07,53,1.10
2012,04,01,07,54,1.10
2012,04,01,07,55,1.20
2012,04,01,07,56,1.20
2012,04,01,07,57,1.20
2012,04,01,07,58,1.20
2012,04,01,07,59,1.20
2012,04,01,08,00,1.20
2012,04,01,08,01,1.20
2012,04,01,08,02,1.20
2012,04,01,08,03,1.20
2012,04,01,08,04,1.20
2012,04,01,08,05,1.20
2012,04,01,08,06,1.20
2012,04,01,08,07,1.20
2012,04,01,08,08,1.20
2012,04,01,08,09,1.20
2012,04,01,08,10,1.20
2012,04,01,08,11,1.20
2012,04,01,08,12,1.20
2012,04,01,08,13,1.30
2012,04,01,08,14,1.30
2012,04,01,08,15,1.30
2012,04,01,08,16,1.30
2012,04,01,08,17,1.30
2012,04,01,08,18,1.30
2012,04,01,08,19,1.30
2012,04,01,08,20,1.40
2012,04,01,08,21,1.40
2012,04,01,08,22,1.40
2012,04,01,08,23,1.40
2012,04,01,08,24,1.40
2012,04,01,08,25,1.40
2012,04,01,08,26,1.40
2012,04,01,08,27,1.40
2012,04,01,08,28,1.50
2012,04,01,08,29,1.50
2012,04,01,08,30,1.50
2012,04,01,08,31,1.50
2012,04,01,08,32,1.60
2012,04,01,08,33,1.60
2012,04,01,08,34,1.60
2012,04,01,08,35,1.60
2012,04,01,08,36,1.60
2012,04,01,08,37,1.60
2012,04,01,08,38,1.60
2012,04,01,08,39,1.60
2012,04,01,08,40,1.60
2012,04,01,08,41,1.60
2012,04,01,08,42,1.60
2012,04,01,08,43,1.60
2012,04,01,08,44,1.60
2012,04,01,08,45,1.60
2012,04,01,08,46,1.60
2012,04,01,08,47,1.70
2012,04,01,08,48,1.70
2012,04,01,08,49,1.70
2012,04,01,08,50,1.70
2012,04,01,08,51,1.70
2012,04,01,08,52,1.70
2012,04,01,08,53,1.70
2012,04,01,08,54,1.70
2012,04,01,08,55,1.70
2012,04,01,08,56,1.80
2012,04,01,08,57,1.80
2012,04,01,08,58,1.80
2012,04,01,08,59,1.80
2012,04,01,09,00,1.80
2012,04,01,09,01,1.80
2012,04,01,09,02,1.80
2012,04,01,09,03,1.80
2012,04,01,09,04,1.80
2012,04,01,09,05,1.90
2012,04,01,09,06,1.90
2012,04,01,09,07,1.90
2012,04,01,09,08,1.90
2012,04,01,09,09,1.90
2012,04,01,09,10,1.90
2012,04,01,09,11,2.00
2012,04,01,09,12,2.00
2012,04,01,09,13,2.00
2012,04,01,09,14,2.00
2012,04,01,09,15,2.00
2012,04,01,09,16,2.10
2012,04,01,09,17,2.10
2012,04,01,09,18,2.10
2012,04,01,09,19,2.10
2012,04,01,09,20,2.10
2012,04,01,09,21,2.20
2012,04,01,09,22,2.20
2012,04,01,09,23,2.20
2012,04,01,09,24,2.20
2012,04,01,09,25,2.20
2012,04,01,09,26,2.30
2012,04,01,09,27,2.30
2012,04,01,09,28,2.30
2012,04,01,09,29,2.30
2012,04,01,09,30,2.40
2012,04,01,09,31,2.40
2012,04,01,09,32,2.50
2012,04,01,09,33,2.50
2012,04,01,09,34,2.60
2012,04,01,09,35,2.60
2012,04,01,09,36,2.60
2012,04,01,09,37,2.70
2012,04,01,09,38,2.70
2012,04,01,09,39,2.70
2012,04,01,09,40,2.80
2012,04,01,09,41,2.80
2012,04,01,09,42,2.90
2012,04,01,09,43,3.00
2012,04,01,09,44,3.10
2012,04,01,09,45,3.20
2012,04,01,09,46,3.30
2012,04,01,09,47,3.40
2012,04,01,09,48,3.60
2012,04,01,09,49,3.70
2012,04,01,09,50,3.80
2012,04,01,09,51,4.00
2012,04,01,09,52,4.10
2012,04,01,09,53,4.20
2012,04,01,09,54,4.30
2012,04,01,09,55,4.40
2012,04,01,09,56,4.50
2012,04,01,09,57,4.60
2012,04,01,09,58,4.70
2012,04,01,09,59,4.70
2012,04,01,10,00,4.80
2012,04,01,10,01,4.90
2012,04,01,10,02,5.00
2012,04,01,10,03,5.00
2012,04,01,10,04,5.10
2012,04,01,10,05,5.20
2012,04,01,10,06,5.30
2012,04,01,10,07,5.30
2012,04,01,10,08,5.40
2012,04,01,10,09,5.50
2012,04,01,10,10,5.60
2012,04,01,10,11,5.60
2012,04,01,10,12,5.70
2012,04,01,10,13,5.80
2012,04,01,10,14,5.90
2012,04,01,10,15,5.90
2012,04,01,10,16,6.00
2012,04,01,10,17,6.10
2012,04,01,10,18,6.20
2012,04,01,10,19,6.20
2012,04,01,10,20,6.30
2012,04,01,10,21,6.40
2012,04,01,10,22,6.50
2012,04,01,10,23,6.60
2012,04,01,10,24,6.70
2012,04,01,10,25,6.70
2012,04,01,10,26,6.80
2012,04,01,10,27,6.90
2012,04,01,10,28,7.00
2012,04,01,10,29,7.10
2012,04,01,10,30,7.10
2012,04,01,10,31,7.20
2012,04,01,10,32,7.20
2012,04,01,10,33,7.20
2012,04,01,10,34,7.20
2012,04,01,10,35,7.20
2012,04,01,10,36,7.30
2012,04,01,10,37,7.30
2012,04,01,10,38,7.30
2012,04,01,10,39,7.30
2012,04,01,10,40,7.30
2012,04,01,10,41,7.30
2012,04,01,10,42,7.40
2012,04,01,10,43,7.40
2012,04,01,10,44,7.50
2012,04,01,10,45,7.60
2012,04,01,10,46,7.60
2012,04,01,10,47,7.70
2012,04,01,10,48,7.70
2012,04,01,10,49,7.70
2012,04,01,10,50,7.70
2012,04,01,10,51,7.80
2012,04,01,10,52,7.80
2012,04,01,10,53,7.80
2012,04,01,10,54,7.80
2012,04,01,10,55,7.80
2012,04,01,10,56,7.80
2012,04,01,10,57,7.80
2012,04,01,10,58,7.80
2012,04,01,10,59,7.90
2012,04,01,11,00,7.90
2012,04,01,11,01,7.90
2012,04,01,11,02,7.90
2012,04,01,11,03,7.90
2012,04,01,11,04,7.90
2012,04,01,11,05,8.00
2012,04,01,11,06,8.00
2012,04,01,11,07,8.00
2012,04,01,11,08,8.00
2012,04,01,11,09,7.90
2012,04,01,11,10,7.90
2012,04,01,11,11,7.90
2012,04,01,11,12,7.80
2012,04,01,11,13,7.80
2012,04,01,11,14,7.80
2012,04,01,11,15,7.80
2012,04,01,11,16,7.80
2012,04,01,11,17,7.90
2012,04,01,11,18,7.90
2012,04,01,11,19,7.90
2012,04,01,11,20,7.90
2012,04,01,11,21,7.90
2012,04,01,11,22,7.90
2012,04,01,11,23,8.00
2012,04,01,11,24,8.00
2012,04,01,11,25,8.10
2012,04,01,11,26,8.10
2012,04,01,11,27,8.20
2012,04,01,11,28,8.20
2012,04,01,11,29,8.30
2012,04,01,11,30,8.30
2012,04,01,11,31,8.30
2012,04,01,11,32,8.20
2012,04,01,11,33,8.20
2012,04,01,11,34,8.20
2012,04,01,11,35,8.20
2012,04,01,11,36,8.20
2012,04,01,11,37,8.30
2012,04,01,11,38,8.30
2012,04,01,11,39,8.30
2012,04,01,11,40,8.30
2012,04,01,11,41,8.40
2012,04,01,11,42,8.40
2012,04,01,11,43,8.40
2012,04,01,11,44,8.40
2012,04,01,11,45,8.30
2012,04,01,11,46,8.30
2012,04,01,11,47,8.30
2012,04,01,11,48,8.30
2012,04,01,11,49,8.30
2012,04,01,11,50,8.40
2012,04,01,11,51,8.40
2012,04,01,11,52,8.40
2012,04,01,11,53,8.40
2012,04,01,11,54,8.50
2012,04,01,11,55,8.50
2012,04,01,11,56,8.50
2012,04,01,11,57,8.60
2012,04,01,11,58,8.60
2012,04,01,11,59,8.60
2012,04,01,12,00,8.60
2012,04,01,12,01,8.70
2012,04,01,12,02,8.70
2012,04,01,12,03,8.70
2012,04,01,12,04,8.70
2012,04,01,12,05,8.80
2012,04,01,12,06,8.80
2012,04,01,12,07,8.90
2012,04,01,12,08,8.90
2012,04,01,12,09,9.00
2012,04,01,12,10,9.00
2012,04,01,12,11,9.10
2012,04,01,12,12,9.10
2012,04,01,12,13,9.20
2012,04,01,12,14,9.20
2012,04,01,12,15,9.20
2012,04,01,12,16,9.20
2012,04,01,12,17,9.20
2012,04,01,12,18,9.30
2012,04,01,12,19,9.30
2012,04,01,12,20,9.30
2012,04,01,12,21,9.40
2012,04,01,12,22,9.40
2012,04,01,12,23,9.40
2012,04,01,12,24,9.50
2012,04,01,12,25,9.50
2012,04,01,12,26,9.50
2012,04,01,12,27,9.50
2012,04,01,12,28,9.50
2012,04,01,12,29,9.60
2012,04,01,12,30,9.60
2012,04,01,12,31,9.60
2012,04,01,12,32,9.70
2012,04,01,12,33,9.70
2012,04,01,12,34,9.70
2012,04,01,12,35,9.70
2012,04,01,12,36,9.80
2012,04,01,12,37,9.80
2012,04,01,12,38,9.90
2012,04,01,12,39,9.90
2012,04,01,12,40,10.00
2012,04,01,12,41,10.00
2012,04,01,12,42,10.00
2012,04,01,12,43,10.00
2012,04,01,12,44,10.10
2012,04,01,12,45,10.10
2012,04,01,12,46,10.10
2012,04,01,12,47,10.20
2012,04,01,12,48,10.20
2012,04,01,12,49,10.30
2012,04,01,12,50,10.30
2012,04,01,12,51,10.30
2012,04,01,12,52,10.30
2012,04,01,12,53,10.30
2012,04,01,12,54,10.20
2012,04,01,12,55,10.20
2012,04,01,12,56,10.20
2012,04,01,12,57,10.20
2012,04,01,12,58,10.20
2012,04,01,12,59,10.20
2012,04,01,13,00,10.20
2012,04,01,13,01,10.20
2012,04,01,13,02,10.30
2012,04,01,13,03,10.30
2012,04,01,13,04,10.30
2012,04,01,13,05,10.30
2012,04,01,13,06,10.30
2012,04,01,13,07,10.30
2012,04,01,13,08,10.20
2012,04,01,13,09,10.20
2012,04,01,13,10,10.20
2012,04,01,13,11,10.10
2012,04,01,13,12,10.10
2012,04,01,13,13,10.10
2012,04,01,13,14,10.20
2012,04,01,13,15,10.20
2012,04,01,13,16,10.20
2012,04,01,13,17,10.10
2012,04,01,13,18,10.10
2012,04,01,13,19,10.00
2012,04,01,13,20,10.00
2012,04,01,13,21,9.90
2012,04,01,13,22,9.80
2012,04,01,13,23,9.70
2012,04,01,13,24,9.60
2012,04,01,13,25,9.50
2012,04,01,13,26,9.50
2012,04,01,13,27,9.40
2012,04,01,13,28,9.40
2012,04,01,13,29,9.40
2012,04,01,13,30,9.40
2012,04,01,13,31,9.50
2012,04,01,13,32,9.50
2012,04,01,13,33,9.60
2012,04,01,13,34,9.70
2012,04,01,13,35,9.70
2012,04,01,13,36,9.70
2012,04,01,13,37,9.70
2012,04,01,13,38,9.70
2012,04,01,13,39,9.70
2012,04,01,13,40,9.70
2012,04,01,13,41,9.70
2012,04,01,13,42,9.70
2012,04,01,13,43,9.70
2012,04,01,13,44,9.70
2012,04,01,13,45,9.80
2012,04,01,13,46,9.80
2012,04,01,13,47,9.80
2012,04,01,13,48,9.90
2012,04,01,13,49,9.90
2012,04,01,13,50,10.00
2012,04,01,13,51,10.00
2012,04,01,13,52,10.00
2012,04,01,13,53,10.10
2012,04,01,13,54,10.10
2012,04,01,13,55,10.10
2012,04,01,13,56,10.10
2012,04,01,13,57,10.10
2012,04,01,13,58,10.10
2012,04,01,13,59,10.10
2012,04,01,14,00,10.20
2012,04,01,14,01,10.20
2012,04,01,14,02,10.30
2012,04,01,14,03,10.40
2012,04,01,14,04,10.50
2012,04,01,14,05,10.60
2012,04,01,14,06,10.60
2012,04,01,14,07,10.60
2012,04,01,14,08,10.60
2012,04,01,14,09,10.60
2012,04,01,14,10,10.50
2012,04,01,14,11,10.40
2012,04,01,14,12,10.30
2012,04,01,14,13,10.30
2012,04,01,14,14,10.20
2012,04,01,14,15,10.20
2012,04,01,14,16,10.10
2012,04,01,14,17,10.10
2012,04,01,14,18,10.10
2012,04,01,14,19,10.10
2012,04,01,14,20,10.10
2012,04,01,14,21,10.10
2012,04,01,14,22,10.10
2012,04,01,14,23,10.10
2012,04,01,14,24,10.10
2012,04,01,14,25,10.20
2012,04,01,14,26,10.20
2012,04,01,14,27,10.20
2012,04,01,14,28,10.30
2012,04,01,14,29,10.30
2012,04,01,14,30,10.40
2012,04,01,14,31,10.40
2012,04,01,14,32,10.50
2012,04,01,14,33,10.50
2012,04,01,14,34,10.60
2012,04,01,14,35,10.60
2012,04,01,14,36,10.70
2012,04,01,14,37,10.80
2012,04,01,14,38,10.80
2012,04,01,14,39,10.80
2012,04,01,14,40,10.80
2012,04,01,14,41,10.80
2012,04,01,14,42,10.80
2012,04,01,14,43,10.80
2012,04,01,14,44,10.80
2012,04,01,14,45,10.90
2012,04,01,14,46,10.90
2012,04,01,14,47,11.00
2012,04,01,14,48,11.10
2012,04,01,14,49,11.10
2012,04,01,14,50,11.20
2012,04,01,14,51,11.20
2012,04,01,14,52,11.20
2012,04,01,14,53,11.20
2012,04,01,14,54,11.20
2012,04,01,14,55,11.30
2012,04,01,14,56,11.20
2012,04,01,14,57,11.20
2012,04,01,14,58,11.20
2012,04,01,14,59,11.20
2012,04,01,15,00,11.20
2012,04,01,15,01,11.10
2012,04,01,15,02,11.00
2012,04,01,15,03,10.90
2012,04,01,15,04,10.90
2012,04,01,15,05,10.80
2012,04,01,15,06,10.70
2012,04,01,15,07,10.60
2012,04,01,15,08,10.40
2012,04,01,15,09,10.30
2012,04,01,15,10,10.20
2012,04,01,15,11,10.10
2012,04,01,15,12,10.00
2012,04,01,15,13,9.90
2012,04,01,15,14,9.80
2012,04,01,15,15,9.80
2012,04,01,15,16,9.70
2012,04,01,15,17,9.70
2012,04,01,15,18,9.60
2012,04,01,15,19,9.60
2012,04,01,15,20,9.60
2012,04,01,15,21,9.50
2012,04,01,15,22,9.40
2012,04,01,15,23,9.40
2012,04,01,15,24,9.40
2012,04,01,15,25,9.30
2012,04,01,15,26,9.30
2012,04,01,15,27,9.20
2012,04,01,15,28,9.20
2012,04,01,15,29,9.10
2012,04,01,15,30,9.20
2012,04,01,15,31,9.20
2012,04,01,15,32,9.20
2012,04,01,15,33,9.20
2012,04,01,15,34,9.20
2012,04,01,15,35,9.30
2012,04,01,15,36,9.40
2012,04,01,15,37,9.50
2012,04,01,15,38,9.60
2012,04,01,15,39,9.70
2012,04,01,15,40,9.80
2012,04,01,15,41,9.80
2012,04,01,15,42,9.90
2012,04,01,15,43,9.90
2012,04,01,15,44,9.90
2012,04,01,15,45,10.00
2012,04,01,15,46,10.00
2012,04,01,15,47,10.00
2012,04,01,15,48,10.00
2012,04,01,15,49,10.10
2012,04,01,15,50,10.10
2012,04,01,15,51,10.10
2012,04,01,15,52,10.10
2012,04,01,15,53,10.10
2012,04,01,15,54,10.10
2012,04,01,15,55,10.10
2012,04,01,15,56,10.10
2012,04,01,15,57,10.10
2012,04,01,15,58,10.10
2012,04,01,15,59,10.10
2012,04,01,16,00,10.20
2012,04,01,16,01,10.30
2012,04,01,16,02,10.30
2012,04,01,16,03,10.30
2012,04,01,16,04,10.30
2012,04,01,16,05,10.20
2012,04,01,16,06,10.10
2012,04,01,16,07,9.90
2012,04,01,16,08,9.80
2012,04,01,16,09,9.70
2012,04,01,16,10,9.70
2012,04,01,16,11,9.60
2012,04,01,16,12,9.50
2012,04,01,16,13,9.50
2012,04,01,16,14,9.40
2012,04,01,16,15,9.40
2012,04,01,16,16,9.40
2012,04,01,16,17,9.40
2012,04,01,16,18,9.40
2012,04,01,16,19,9.50
2012,04,01,16,20,9.50
2012,04,01,16,21,9.40
2012,04,01,16,22,9.40
2012,04,01,16,23,9.40
2012,04,01,16,24,9.40
2012,04,01,16,25,9.30
2012,04,01,16,26,9.30
2012,04,01,16,27,9.30
2012,04,01,16,28,9.20
2012,04,01,16,29,9.10
2012,04,01,16,30,9.00
2012,04,01,16,31,8.90
2012,04,01,16,32,8.80
2012,04,01,16,33,8.80
2012,04,01,16,34,8.80
2012,04,01,16,35,8.80
2012,04,01,16,36,8.80
2012,04,01,16,37,8.70
2012,04,01,16,38,8.70
2012,04,01,16,39,8.70
2012,04,01,16,40,8.70
2012,04,01,16,41,8.80
2012,04,01,16,42,8.70
2012,04,01,16,43,8.70
2012,04,01,16,44,8.70
2012,04,01,16,45,8.60
2012,04,01,16,46,8.60
2012,04,01,16,47,8.60
2012,04,01,16,48,8.60
2012,04,01,16,49,8.50
2012,04,01,16,50,8.50
2012,04,01,16,51,8.50
2012,04,01,16,52,8.40
2012,04,01,16,53,8.40
2012,04,01,16,54,8.40
2012,04,01,16,55,8.30
2012,04,01,16,56,8.30
2012,04,01,16,57,8.30
2012,04,01,16,58,8.30
2012,04,01,16,59,8.30
2012,04,01,17,00,8.30
2012,04,01,17,01,8.20
2012,04,01,17,02,8.20
2012,04,01,17,03,8.10
2012,04,01,17,04,8.10
2012,04,01,17,05,8.00
2012,04,01,17,06,8.00
2012,04,01,17,07,7.90
2012,04,01,17,08,7.90
2012,04,01,17,09,7.90
2012,04,01,17,10,7.80
2012,04,01,17,11,7.80
2012,04,01,17,12,7.70
2012,04,01,17,13,7.70
2012,04,01,17,14,7.70
2012,04,01,17,15,7.60
2012,04,01,17,16,7.60
2012,04,01,17,17,7.50
2012,04,01,17,18,7.40
2012,04,01,17,19,7.30
2012,04,01,17,20,7.30
2012,04,01,17,21,7.30
2012,04,01,17,22,7.20
2012,04,01,17,23,7.20
2012,04,01,17,24,7.10
2012,04,01,17,25,7.10
2012,04,01,17,26,7.10
2012,04,01,17,27,7.10
2012,04,01,17,28,7.10
2012,04,01,17,29,7.10
2012,04,01,17,30,7.10
2012,04,01,17,31,7.10
2012,04,01,17,32,7.10
2012,04,01,17,33,7.10
2012,04,01,17,34,7.10
2012,04,01,17,35,7.00
2012,04,01,17,36,7.00
2012,04,01,17,37,7.00
2012,04,01,17,38,7.00
2012,04,01,17,39,7.10
2012,04,01,17,40,7.10
2012,04,01,17,41,7.10
2012,04,01,17,42,7.20
2012,04,01,17,43,7.20
2012,04,01,17,44,7.20
2012,04,01,17,45,7.20
2012,04,01,17,46,7.30
2012,04,01,17,47,7.30
2012,04,01,17,48,7.30
2012,04,01,17,49,7.30
2012,04,01,17,50,7.30
2012,04,01,17,51,7.30
2012,04,01,17,52,7.30
2012,04,01,17,53,7.30
2012,04,01,17,54,7.30
2012,04,01,17,55,7.30
2012,04,01,17,56,7.30
2012,04,01,17,57,7.30
2012,04,01,17,58,7.30
2012,04,01,17,59,7.30
2012,04,01,18,00,7.20